Weather History for Lake Charles, LA

Change the Weather History Date:

Friday, October 21, 2011

  Actual Average Record
Temperature  
Mean Temperature 62 °F -  
Max Temperature 80 °F 77 °F 89 °F (2003)
Min Temperature 44 °F 61 °F 44 °F (2011)
Degree Days  
Heating Degree Days 3    
Growing Degree Days 12 (Base 50)    
Moisture  
Dew Point 44 °F    
Average Humidity 70    
Maximum Humidity 93    
Minimum Humidity 21    
Precipitation  
Precipitation 0.00 in - - ()
Sea Level Pressure  
Sea Level Pressure 30.17 in    
Wind  
Wind Speed 1 mph (SE)    
Max Wind Speed 15 mph    
Max Gust Speed 20 mph    
Visibility 10 miles    
Events      
Averages and records for this station are not official NWS values.
T = Trace of Precipitation, MM = Missing Value Source: NWS Daily Summary

Daily Weather History Graph

Daily Weather History Graph

Search for Another Location

Airport:

Trip Planner

Search our weather history database for the weather conditions in past years. The results will help you decide how hot, cold, wet, or windy it might be!

Date:

Astronomy

Oct. 21, 2011 Rise Set
Actual Time 7:18 AM CDT 6:35 PM CDT
Civil Twilight 6:54 AM CDT 6:59 PM CDT
Nautical Twilight 6:26 AM CDT 7:27 PM CDT
Astronomical Twilight 5:58 AM CDT 7:55 PM CDT
Moon 1:34 AM CDT (10/21) 2:57 PM CDT (10/21)
Length of Visible Light 12h 05m
Length of Day
11h 17m
Waning Crescent, 33% of the Moon is Illuminated
Oct 21
Waning Crescent
Oct 26
New
Nov 2
First Quarter
Nov 10
Full
Nov 18
Last Quarter

Hourly Weather History & Observations

Time (CDT) Temp. Dew Point Humidity Pressure Visibility Wind Dir Wind Speed Gust Speed Precip Events Conditions
12:15 AM 46.4 °F 42.8 °F 87% 30.15 in 10.0 mi Calm Calm - N/A   Clear
12:35 AM 46.4 °F 42.8 °F 87% 30.15 in 10.0 mi Calm Calm - N/A   Clear
12:55 AM 46.4 °F 41.0 °F 81% 30.15 in 10.0 mi Calm Calm - N/A   Clear
1:15 AM 46.4 °F 42.8 °F 87% 30.15 in 10.0 mi Calm Calm - N/A   Clear
1:35 AM 44.6 °F 41.0 °F 87% 30.15 in 10.0 mi Calm Calm - N/A   Clear
1:55 AM 44.6 °F 41.0 °F 87% 30.15 in 10.0 mi Calm Calm - N/A   Clear
2:15 AM 44.6 °F 42.8 °F 93% 30.15 in 10.0 mi Calm Calm - N/A   Clear
2:35 AM 44.6 °F 41.0 °F 87% 30.15 in 10.0 mi Calm Calm - N/A   Clear
2:55 AM 44.6 °F 41.0 °F 87% 30.15 in 10.0 mi Calm Calm - N/A   Clear
3:15 AM 44.6 °F 41.0 °F 87% 30.15 in 10.0 mi Calm Calm - N/A   Clear
3:35 AM 44.6 °F 41.0 °F 87% 30.15 in 10.0 mi Calm Calm - N/A   Clear
3:55 AM 46.4 °F 42.8 °F 87% 30.15 in 10.0 mi Calm Calm - N/A   Clear
4:15 AM 44.6 °F 42.8 °F 93% 30.16 in 10.0 mi Calm Calm - N/A   Clear
4:35 AM 44.6 °F 42.8 °F 93% 30.16 in 10.0 mi Calm Calm - N/A   Clear
4:55 AM 44.6 °F 42.8 °F 93% 30.17 in 10.0 mi Calm Calm - N/A   Clear
5:15 AM 44.6 °F 42.8 °F 93% 30.17 in 10.0 mi Calm Calm - N/A   Clear
5:35 AM 44.6 °F 42.8 °F 93% 30.17 in 10.0 mi Calm Calm - N/A   Clear
5:55 AM 44.6 °F 41.0 °F 87% 30.17 in 10.0 mi Calm Calm - N/A   Clear
6:00 AM 46.4 °F 42.8 °F 87% 30.17 in 10.0 mi Calm Calm - N/A   Clear
7:50 AM 48.2 °F 42.8 °F 82% 30.21 in 10.0 mi Calm Calm - N/A   Clear
8:50 AM 55.4 °F 46.4 °F 72% 30.22 in 10.0 mi Calm Calm - N/A   Clear
9:55 AM 66.2 °F 46.4 °F 49% 30.23 in 10.0 mi ENE 3.5 mph - N/A   Clear
10:50 AM 71.6 °F 41.0 °F 33% 30.24 in 10.0 mi East 5.8 mph - N/A   Clear
11:50 AM 75.2 °F 35.6 °F 24% 30.23 in 10.0 mi ENE 4.6 mph - N/A   Clear
12:45 PM 78.8 °F 35.6 °F 21% 30.20 in 10.0 mi East 5.8 mph - N/A   Clear
1:45 PM 78.8 °F 37.4 °F 23% 30.18 in 10.0 mi Calm Calm - N/A   Clear
2:50 PM 78.8 °F 39.2 °F 24% 30.15 in 10.0 mi Calm Calm - N/A   Clear
3:50 PM 80.6 °F 42.8 °F 26% 30.14 in 10.0 mi Calm Calm - N/A   Clear
4:50 PM 78.8 °F 42.8 °F 28% 30.14 in 10.0 mi SW 15.0 mph 19.6 mph N/A   Clear
5:50 PM 75.2 °F 42.8 °F 31% 30.15 in 10.0 mi South 12.7 mph - N/A   Clear
6:50 PM 69.8 °F 44.6 °F 40% 30.15 in 10.0 mi South 6.9 mph - N/A   Clear
7:50 PM 60.8 °F 46.4 °F 59% 30.16 in 10.0 mi South 6.9 mph - N/A   Clear
8:50 PM 59.0 °F 48.2 °F 67% 30.16 in 10.0 mi SSE 4.6 mph - N/A   Clear
9:50 PM 57.2 °F 50.0 °F 77% 30.16 in 10.0 mi SE 3.5 mph - N/A   Clear
10:15 PM 57.2 °F 50.0 °F 77% 30.16 in 10.0 mi East 3.5 mph - N/A   Clear
10:35 PM 55.4 °F 50.0 °F 82% 30.16 in 10.0 mi Calm Calm - N/A   Clear
10:55 PM 57.2 °F 50.0 °F 77% 30.16 in 10.0 mi Calm Calm - N/A   Clear
11:15 PM 57.2 °F 50.0 °F 77% 30.16 in 10.0 mi Calm Calm - N/A   Clear
11:35 PM 55.4 °F 50.0 °F 82% 30.16 in 10.0 mi Calm Calm - N/A   Clear
11:55 PM 55.4 °F 50.0 °F 82% 30.16 in 10.0 mi ENE 3.5 mph - N/A   Clear